Shanghai Hongqiao, China

6:55 PM CST on August 24, 2017 (GMT +0800)
Hongqiao

Weather History for ZSSS - July, 2013

Change the Weather History Date:

Tuesday, July 30, 2013

  Actual Average Record
Temperature  
Mean Temperature 96 °F -  
Max Temperature 104 °F 89 °F 104 °F (2013)
Min Temperature 87 °F 76 °F 77 °F (2004)
Cooling Degree Days 30    
Growing Degree Days 46 (Base 50)    
Moisture  
Dew Point 73 °F    
Average Humidity 51    
Maximum Humidity 70    
Minimum Humidity 31    
Precipitation  
Precipitation 0.00 in 0.17 in - ()
Sea Level Pressure  
Sea Level Pressure 29.58 in    
Wind  
Wind Speed 8 mph ()    
Max Wind Speed 16 mph    
Max Gust Speed 25 mph    
Visibility 6.2 miles    
Events      
Averages and records for this station are not official NWS values.
T = Trace of Precipitation, MM = Missing Value Source: Averaged Metar Reports

Daily Weather History Graph

Daily Weather History Graph

Search for Another Location

Airport or City:

Trip Planner

Search our weather history database for the weather conditions in past years. The results will help you decide how hot, cold, wet, or windy it might be!

Date:

Astronomy

Jul. 30, 2013 Rise Set
Actual Time 5:10 AM CST 6:51 PM CST
Civil Twilight 4:43 AM CST 7:18 PM CST
Nautical Twilight 4:11 AM CST 7:49 PM CST
Astronomical Twilight 3:38 AM CST 8:23 PM CST
Moon 11:41 PM CST (7/30) 12:40 PM CST (7/30)
Length of Visible Light 14h 34m
Length of Day
13h 41m
Last Quarter, 46% of the Moon is Illuminated
Jul 30
Last Quarter
Aug 7
New
Aug 14
First Quarter
Aug 21
Full
Aug 28
Last Quarter

Hourly Weather History & Observations

Time (CST) Temp. Heat Index Dew Point Humidity Pressure Visibility Wind Dir Wind Speed Gust Speed Precip Events Conditions
12:00 AM 89.6 °F 99.8 °F 75.2 °F 62% 29.62 in - South 6.7 mph - N/A   Clear
12:30 AM 89.6 °F 99.8 °F 75.2 °F 62% 29.62 in - South 8.9 mph - N/A   Clear
1:00 AM 89.6 °F 99.8 °F 75.2 °F 62% 29.62 in - South 8.9 mph - N/A   Clear
1:30 AM 89.6 °F 102.2 °F 77.0 °F 66% 29.62 in - South 6.7 mph - N/A   Clear
2:00 AM 87.8 °F 99.7 °F 77.0 °F 70% 29.62 in - South 6.7 mph - N/A   Clear
2:30 AM 87.8 °F 99.7 °F 77.0 °F 70% 29.62 in - South 6.7 mph - N/A   Clear
3:00 AM 87.8 °F 99.7 °F 77.0 °F 70% 29.59 in - South 6.7 mph - N/A   Clear
3:30 AM 87.8 °F 99.7 °F 77.0 °F 70% 29.59 in - South 6.7 mph - N/A   Clear
4:00 AM 87.8 °F 99.7 °F 77.0 °F 70% 29.59 in - South 6.7 mph - N/A   Clear
4:30 AM 87.8 °F 99.7 °F 77.0 °F 70% 29.59 in - South 6.7 mph - N/A   Clear
5:00 AM 87.8 °F 99.7 °F 77.0 °F 70% 29.59 in - SSW 6.7 mph - N/A   Clear
5:30 AM 87.8 °F 99.7 °F 77.0 °F 70% 29.59 in - South 4.5 mph - N/A   Clear
6:00 AM 89.6 °F 102.2 °F 77.0 °F 66% 29.59 in - SSW 6.7 mph - N/A   Clear
6:30 AM 91.4 °F 105.1 °F 77.0 °F 63% 29.62 in - SSW 6.7 mph - N/A   Clear
7:00 AM 91.4 °F 105.1 °F 77.0 °F 63% 29.62 in - SW 6.7 mph - N/A   Clear
7:30 AM 93.2 °F 105.0 °F 75.2 °F 56% 29.62 in - WSW 11.2 mph - N/A   Clear
8:00 AM 93.2 °F 105.0 °F 75.2 °F 56% 29.62 in - WSW 11.2 mph - N/A   Clear
8:30 AM 95.0 °F 107.4 °F 75.2 °F 53% 29.62 in - WSW 8.9 mph - N/A   Clear
9:00 AM 96.8 °F 109.6 °F 75.2 °F 50% 29.62 in - SW 8.9 mph - N/A   Clear
9:30 AM 98.6 °F 109.2 °F 73.4 °F 44% 29.62 in - SW 11.2 mph - N/A   Clear
10:00 AM 98.6 °F 107.7 °F 71.6 °F 42% 29.62 in - West 11.2 mph - N/A   Clear
10:30 AM 100.4 °F 109.3 °F 71.6 °F 39% 29.62 in - West 11.2 mph - N/A   Clear
11:00 AM 100.4 °F 106.3 °F 68.0 °F 35% 29.59 in 6.2 mi West 13.4 mph - N/A   Partly Cloudy
11:30 AM 100.4 °F 104.9 °F 66.2 °F 33% 29.59 in 6.2 mi West 11.2 mph - N/A   Partly Cloudy
12:00 PM 102.2 °F 110.0 °F 69.8 °F 35% 29.56 in 6.2 mi WSW 13.4 mph 24.6 mph N/A   Partly Cloudy
12:30 PM 102.2 °F 110.0 °F 69.8 °F 35% 29.56 in 6.2 mi NW 11.2 mph - N/A   Partly Cloudy
1:00 PM 100.4 °F 107.8 °F 69.8 °F 37% 29.56 in 6.2 mi WSW 11.2 mph - N/A   Partly Cloudy
1:30 PM 102.2 °F 108.4 °F 68.0 °F 33% 29.56 in 6.2 mi SW 11.2 mph - N/A   Partly Cloudy
2:00 PM 104.0 °F 110.5 °F 68.0 °F 31% 29.56 in 6.2 mi WSW 13.4 mph - N/A   Partly Cloudy
2:30 PM 102.2 °F 110.0 °F 69.8 °F 35% 29.53 in 6.2 mi West 11.2 mph - N/A   Partly Cloudy
3:00 PM 102.2 °F 108.4 °F 68.0 °F 33% 29.53 in 6.2 mi West 11.2 mph 24.6 mph N/A   Partly Cloudy
3:30 PM 102.2 °F 110.0 °F 69.8 °F 35% 29.53 in 6.2 mi WSW 11.2 mph - N/A   Partly Cloudy
4:00 PM 102.2 °F 110.0 °F 69.8 °F 35% 29.53 in 6.2 mi SW 6.7 mph - N/A   Partly Cloudy
4:30 PM 102.2 °F 108.4 °F 68.0 °F 33% 29.53 in 6.2 mi SW 6.7 mph - N/A   Partly Cloudy
5:00 PM 102.2 °F 108.4 °F 68.0 °F 33% 29.53 in - WSW 8.9 mph - N/A   Clear
5:30 PM 100.4 °F 107.8 °F 69.8 °F 37% 29.53 in - SW 8.9 mph - N/A   Clear
6:00 PM 100.4 °F 106.3 °F 68.0 °F 35% 29.53 in - SW 6.7 mph - N/A   Clear
6:30 PM 98.6 °F 104.1 °F 68.0 °F 37% 29.53 in - WSW 6.7 mph - N/A   Clear
7:00 PM 98.6 °F 104.1 °F 68.0 °F 37% 29.53 in - SW 6.7 mph - N/A   Clear
7:30 PM 93.2 °F 105.0 °F 75.2 °F 56% 29.53 in - South 15.7 mph - N/A   Clear
8:00 PM 93.2 °F 102.4 °F 73.4 °F 52% 29.56 in - South 13.4 mph - N/A   Clear
8:30 PM 93.2 °F 102.4 °F 73.4 °F 52% 29.56 in - South 13.4 mph - N/A   Clear
9:00 PM 91.4 °F 96.8 °F 69.8 °F 49% 29.59 in - South 13.4 mph - N/A   Clear
9:30 PM 91.4 °F 98.4 °F 71.6 °F 52% 29.59 in - South 13.4 mph - N/A   Clear
10:00 PM 89.6 °F 98.2 °F 73.4 °F 59% 29.59 in - South 13.4 mph - N/A   Clear
10:30 PM 89.6 °F 99.8 °F 75.2 °F 62% 29.59 in - South 11.2 mph - N/A   Clear
11:00 PM 89.6 °F 99.8 °F 75.2 °F 62% 29.56 in - South 8.9 mph - N/A   Clear
11:30 PM 89.6 °F 99.8 °F 75.2 °F 62% 29.56 in - SSE 8.9 mph - N/A   Clear